Regional Weather Roundup
Issued by NWS Tiyan, Guam

Home | Current Version | Previous Version | Text Only | Print | Product List | Glossary On
Versions: 1 2 3 4 5 6 7 8 9 10 11 12 13 14 15 16 17 18 19 20 21 22 23 24 25 26 27 28 29 30 31 32 33 34 35 36 37 38 39 40 41 42 43 44 45 46 47 48 49 50
000
ASGM40 PGUM 242112
RWRGUM
WEATHER ROUNDUP FOR THE MARIANAS
NATIONAL WEATHER SERVICE TIYAN GU
700 AM CHST SAT MAR 25 2017

GUZ001>004-242200-
MARIANA ISLANDS-

CITY           SKY/WX    TMP DP  RH WIND       PRES   REMARKS
GUAM AIRPORT   PTCLDY    79  73  83 E5        29.90R
ANDERSEN AFB   PTCLDY    79  73  83 SE9       29.92R
ROTA AIRPORT   MOCLDY    77  73  88 E6        29.91R
TINIAN AP      PTCLDY    75  73  94 CALM      29.91R
SAIPAN AP      CLOUDY    77  73  88 N3        29.93R

$$




USA.gov is the U.S. government's official web portal to all federal, state and local government web resources and services.